Dewpoint
34 35 39 41 45 49 46 44 42 42 41 39 39 37 37 36 37 36 35 35 34 33 34 33 31 32 30 30 27 26 25 23 18 19 19 20 16 15 16 15 11 8 6
36 37 39 44 41 39 36 36 37 35 35 35 35 34 34 34 35 34 34 34 33 32 32 30 29 29 26 22 22 21 20 22 17 15 16 15 16 14 12 9 6 5 6
36 39 39 36 34 34 34 35 34 34 34 34 34 34 33 33 33 33 33 32 31 29 28 27 26 22 21 21 20 18 18 17 17 16 16 16 14 12 9 9 8 8 4
36 35 34 34 34 33 34 34 34 34 34 34 34 34 33 33 32 31 29 27 27 27 24 22 22 22 21 20 18 17 15 15 15 15 13 11 10 11 11 8 7 8 6
33 32 32 32 33 33 33 32 33 32 32 31 31 31 31 30 29 27 26 26 25 25 26 26 25 24 23 20 17 16 14 13 12 11 10 9 8 8 7 7 7 8 8
32 31 31 31 31 30 30 29 29 29 29 29 29 29 29 30 31 29 27 25 26 26 25 26 27 27 26 23 20 18 16 13 11 11 10 7 6 7 8 8 9 9 7
28 28 29 28 28 29 29 29 28 28 28 28 28 28 28 29 30 29 28 26 25 25 26 26 25 24 22 19 21 20 19 17 12 8 7 8 8 8 9 9 9 8 6
26 27 28 28 27 28 28 28 28 28 28 27 27 28 28 29 30 29 27 25 24 24 23 23 21 19 17 14 12 11 9 9 11 9 10 10 9 10 9 6 7 8 9
26 26 27 27 27 27 27 27 28 27 28 28 27 27 27 28 25 22 18 17 16 17 17 17 16 16 18 18 14 11 8 10 16 16 14 14 11 7 4 7 8 6 3
27 27 28 28 27 27 27 27 28 28 28 26 26 25 24 21 22 21 18 16 17 18 19 19 22 19 21 20 16 13 13 10 12 14 13 8 2 2 2 5 5 3 3
29 29 29 29 28 28 28 27 27 27 25 22 19 20 19 20 20 22 21 17 18 18 18 18 19 22 21 19 15 14 13 13 13 10 8 8 8 8 7 6 6 4 2
26 26 27 27 28 27 26 26 25 23 22 21 21 21 21 20 22 22 22 21 22 20 18 17 18 20 20 18 12 11 15 13 11 9 8 8 7 6 7 7 6 5 4
25 25 25 25 26 26 24 23 23 23 22 21 21 22 22 23 23 23 24 23 21 17 17 17 19 18 14 10 6 7 11 9 9 7 7 6 6 5 5 3 3 3 2
25 24 24 24 24 24 23 23 23 23 22 22 22 22 22 22 22 23 23 20 19 16 17 17 16 10 5 6 5 6 6 8 6 6 6 6 6 4 3 3 1 1 -1
22 22 22 22 22 21 21 22 22 23 24 24 24 23 22 20 20 20 20 19 18 17 13 12 11 9 7 8 8 7 7 6 4 6 5 4 4 3 2 3 1 -0 -3
22 21 21 21 21 21 21 21 23 23 23 24 24 24 23 21 20 20 19 18 16 16 12 10 9 9 8 9 8 8 7 4 5 5 4 3 2 2 1 2 1 -1 -3
24 23 21 21 21 21 22 22 21 23 23 23 23 21 21 21 20 18 17 17 17 15 11 11 11 10 9 8 8 7 6 6 2 2 2 2 1 1 -0 -1 -1 -2 -3
22 18 23 22 22 22 23 23 23 22 21 21 21 20 20 21 21 20 18 18 16 13 10 10 9 10 9 8 7 6 6 5 4 3 2 1 -0 -0 -1 -2 -2 -3 -3
23 22 23 23 23 22 23 23 23 23 22 22 20 20 18 22 20 19 19 16 13 12 10 8 9 9 8 7 6 5 3 3 2 2 2 1 0 -1 -3 -2 -3 -4 -5
22 18 19 23 21 21 21 22 21 21 21 21 19 19 18 16 18 18 17 15 15 11 10 9 8 8 7 6 5 4 3 3 3 2 1 1 0 -0 -1 -3 -4 -5 -5
24 22 18 22 22 22 22 21 21 21 20 20 20 20 20 16 17 17 16 15 12 9 8 8 8 7 6 5 4 3 3 3 2 2 1 0 0 -1 -1 -2 -3 -3 -5
25 25 22 22 23 22 22 22 21 21 20 20 20 20 21 18 15 16 16 15 13 11 9 8 7 6 5 4 4 3 2 1 2 1 0 -0 -0 -1 -2 -2 -4 -5 -6
25 24 22 21 21 20 20 19 20 19 19 19 19 18 15 16 17 16 15 14 13 11 9 6 4 4 5 4 3 2 0 0 1 1 -0 -1 -1 -2 -2 -3 -4 -6 -7
25 24 24 23 23 20 19 20 20 16 17 18 18 17 16 15 14 14 14 14 13 10 7 4 3 2 2 2 3 3 2 2 1 1 -0 -1 -1 -1 -2 -3 -4 -5 -6
25 25 25 24 24 22 20 20 19 19 17 15 14 15 15 14 12 12 11 10 8 6 4 4 3 2 1 0 0 1 2 4 3 2 3 0 -2 -3 -3 -4 -4 -4 -5
24 24 24 24 22 21 20 19 18 17 15 15 14 13 13 12 11 11 9 8 6 3 2 3 3 2 2 2 2 4 3 6 5 5 4 2 -1 -1 -1 -3 -5 -6 -6
Lifted_Index
9 10 11 11 9 6 4 2 2 2 1 1 1 2 2 2 2 3 4 5 5 6 8 9 10 11 12 12 13 14 14 15 14 15 17 18 18 19 20 20 20 21 21
8 9 10 9 8 6 4 2 2 1 1 2 2 2 2 3 4 4 5 6 7 8 9 10 11 12 12 13 14 15 16 16 15 15 16 17 18 19 20 20 20 21 21
7 7 8 8 7 5 4 3 2 2 2 2 3 3 4 5 6 7 7 9 10 11 11 12 12 13 14 15 16 17 17 17 16 16 16 18 19 19 19 19 20 20 20
6 6 6 7 6 5 4 3 3 2 3 3 4 6 7 8 9 9 10 11 12 13 14 14 14 15 16 17 17 17 17 17 17 17 17 18 18 18 19 18 19 19 19
5 5 6 6 6 5 4 4 3 3 4 5 7 9 10 11 11 11 12 12 13 13 14 16 17 18 18 18 18 18 17 17 17 17 17 17 17 18 18 18 18 18 18
4 5 6 7 7 6 5 5 5 5 6 8 9 11 12 13 13 13 13 13 13 14 15 16 18 19 19 19 19 19 19 18 18 17 17 17 17 18 18 18 18 17 17
5 6 7 7 7 7 6 6 7 7 8 10 11 12 13 14 15 15 15 15 15 15 16 17 18 19 19 19 19 20 19 19 19 18 18 18 18 19 19 19 18 18 17
7 7 8 8 8 8 8 8 9 9 11 12 13 13 14 15 16 16 16 16 17 18 18 18 18 19 19 20 19 19 19 19 20 20 20 20 20 21 21 20 19 18 18
9 9 10 10 9 9 9 10 10 11 12 13 14 14 14 15 16 17 17 17 18 18 19 19 19 19 20 20 19 19 19 19 20 21 21 22 22 22 22 21 20 19 18
12 12 12 12 11 11 11 12 12 12 13 14 14 15 16 17 18 19 18 18 18 17 18 18 20 20 21 20 20 19 19 20 21 21 21 22 22 22 22 22 21 19 19
13 13 13 13 12 12 12 12 13 13 13 13 14 16 18 19 19 19 19 18 17 17 18 19 20 21 21 21 21 20 20 21 21 21 21 21 21 22 22 22 22 21 21
13 13 13 13 13 13 13 12 12 12 13 14 15 16 18 19 19 19 19 18 18 19 19 20 21 21 21 21 21 21 21 21 21 20 20 20 21 21 22 22 23 23 23
13 13 13 13 13 13 13 13 13 13 13 14 15 15 16 17 18 18 18 19 20 21 21 21 21 21 22 22 22 22 22 21 21 21 20 21 21 22 22 22 22 22 22
13 13 13 13 13 14 14 15 15 15 15 15 15 15 15 16 17 18 19 20 21 21 21 21 21 21 22 22 22 22 22 22 21 21 21 21 21 22 21 21 21 21 21
13 13 14 14 14 15 15 16 17 17 17 16 16 16 16 16 17 19 20 21 21 22 21 21 21 21 21 21 21 22 22 22 21 21 21 21 21 21 21 21 20 20 19
13 13 13 14 14 15 16 16 17 18 18 17 17 16 16 17 18 20 21 22 22 22 21 21 21 21 21 21 21 21 21 22 22 22 22 21 21 21 20 20 20 19 19
13 13 13 13 13 14 15 16 16 17 17 17 17 17 17 18 18 20 21 21 22 21 21 20 20 20 21 21 21 21 21 22 22 22 22 21 21 21 20 20 19 19 18
13 13 13 13 13 14 15 16 16 16 16 16 17 17 17 17 18 19 20 21 20 20 20 20 20 21 21 21 21 22 22 22 22 22 21 21 21 20 19 19 19 18 18
13 13 13 13 13 14 14 15 16 16 16 16 16 17 17 17 17 18 19 20 20 20 20 21 21 21 22 22 22 22 22 21 21 21 21 20 20 20 19 18 18 18 18
14 14 14 14 14 14 14 15 16 16 16 16 16 17 17 17 17 17 18 19 20 20 21 21 22 22 22 22 22 22 21 21 21 20 20 20 20 19 19 18 18 18 18
14 14 14 14 14 14 14 15 15 15 16 16 16 17 18 17 17 17 17 18 20 21 21 22 22 22 22 22 22 21 21 21 20 20 20 20 20 19 18 18 18 18 18
13 13 14 14 14 14 14 14 15 15 15 16 17 17 18 17 17 17 17 18 19 21 21 22 22 22 22 22 22 21 21 20 20 20 20 20 19 19 18 18 18 18 18
13 13 14 14 14 14 14 15 15 15 15 16 16 17 17 17 17 17 18 18 19 20 21 22 22 22 22 22 22 21 21 21 21 21 20 20 19 19 18 18 18 18 18
14 14 14 14 14 14 14 15 15 15 15 15 16 16 16 17 17 17 18 18 19 20 21 21 22 22 22 22 22 22 22 21 21 21 20 20 19 19 18 18 18 18 17
14 14 14 14 14 14 14 14 14 15 15 15 15 16 16 16 16 17 18 18 19 20 21 21 22 22 22 22 22 22 22 21 21 21 20 20 19 18 18 18 17 17 17
14 14 14 14 14 14 14 14 14 14 14 15 15 15 16 16 16 17 18 18 19 20 21 21 21 21 22 22 22 21 21 21 20 20 20 20 19 18 18 17 17 17 16